YO6IKB-10 Weather Reports


time (UTC)temp
C
wind
direction
speed
KPH
gust
KPH
rain 1hr
cm
rain 24hr
cm
rain mn
cm
humidity
%
barometer
mb
20260504022051 7 292 0.0 1.6 0.00 0.00 0.00 65 1014.7
20260504021551 7 315 0.0 0.0 0.00 0.00 0.00 65 1014.8
20260504021051 7 0 0.0 6.4 0.00 0.00 0.00 65 1014.8
20260504020551 7 292 0.0 8.0 0.00 0.00 0.00 64 1014.8
20260504020050 7 292 3.2 4.8 0.00 0.00 0.00 63 1014.7
20260504015550 7 292 0.0 3.2 0.00 0.00 0.00 63 1014.7
20260504015050 7 292 3.2 3.2 0.00 0.00 0.00 63 1014.7
20260504014549 7 292 1.6 4.8 0.00 0.00 0.00 63 1014.7
20260504014049 7 292 3.2 4.8 0.00 0.00 0.00 63 1014.7
20260504013549 8 292 0.0 8.0 0.00 0.00 0.00 63 1014.7
20260504013049 7 292 3.2 6.4 0.00 0.00 0.00 63 1014.6
20260504012548 7 292 3.2 8.0 0.00 0.00 0.00 62 1014.7
20260504012048 7 315 3.2 3.2 0.00 0.00 0.00 62 1014.7
20260504011548 7 315 0.0 4.8 0.00 0.00 0.00 62 1014.8
20260504011047 7 315 3.2 8.0 0.00 0.00 0.00 62 1014.5
20260504010547 8 292 1.6 6.4 0.00 0.00 0.00 62 1014.6
20260504010047 8 292 4.8 8.0 0.00 0.00 0.00 62 1014.5
20260504005547 8 292 0.0 3.2 0.00 0.00 0.00 62 1014.3
20260504005046 8 292 0.0 0.0 0.00 0.00 0.00 62 1014.3
20260504004546 8 292 0.0 0.0 0.00 0.00 0.00 62 1014.4
20260504004046 8 292 0.0 0.0 0.00 0.00 0.00 61 1014.4
20260504003545 8 292 0.0 0.0 0.00 0.00 0.00 61 1014.4
20260504003045 8 292 0.0 0.0 0.00 0.00 0.00 60 1014.3
20260504002545 8 292 0.0 0.0 0.00 0.00 0.00 59 1014.2
20260504002044 8 292 0.0 0.0 0.00 0.00 0.00 59 1014.2
20260504001544 8 292 0.0 0.0 0.00 0.00 0.00 58 1014.2
20260504001044 8 292 0.0 0.0 0.00 0.00 0.00 57 1014.3
20260504000544 9 292 0.0 1.6 0.00 0.00 0.00 56 1014.2
20260504000043 9 292 0.0 0.0 0.00 0.00 0.00 56 1014.1
20260503235543 9 292 0.0 0.0 0.00 0.00 0.00 56 1014.2
20260503235043 9 292 0.0 0.0 0.00 0.00 0.00 56 1014.1
20260503234542 9 292 0.0 0.0 0.00 0.00 0.00 56 1014.2
20260503234042 8 292 0.0 0.0 0.00 0.00 0.00 57 1014.1
20260503233542 8 292 0.0 0.0 0.00 0.00 0.00 57 1014.2
20260503233042 8 292 0.0 0.0 0.00 0.00 0.00 58 1014.2
20260503232541 9 292 0.0 0.0 0.00 0.00 0.00 58 1014.1
20260503232041 9 292 0.0 0.0 0.00 0.00 0.00 57 1014.2
20260503231541 9 292 0.0 0.0 0.00 0.00 0.00 57 1014.1
20260503231040 9 292 0.0 0.0 0.00 0.00 0.00 57 1014.2
20260503230540 9 292 0.0 0.0 0.00 0.00 0.00 57 1014.2
20260503230040 9 292 0.0 0.0 0.00 0.00 0.00 57 1014.2
20260503225540 9 292 0.0 0.0 0.00 0.00 0.00 57 1014.3
20260503225039 9 292 0.0 0.0 0.00 0.00 0.00 57 1014.3
20260503224539 9 292 0.0 0.0 0.00 0.00 0.00 57 1014.4
20260503224039 9 292 0.0 0.0 0.00 0.00 0.00 56 1014.4
20260503223538 9 292 0.0 1.6 0.00 0.00 0.00 56 1014.5
20260503223038 9 292 0.0 1.6 0.00 0.00 0.00 56 1014.5
20260503222538 9 292 0.0 0.0 0.00 0.00 0.00 55 1014.5
20260503222037 9 292 0.0 1.6 0.00 0.00 0.00 55 1014.6
20260503221537 9 292 0.0 0.0 0.00 0.00 0.00 55 1014.6
20260503221037 9 292 0.0 0.0 0.00 0.00 0.00 55 1014.6
20260503220537 9 292 0.0 0.0 0.00 0.00 0.00 54 1014.7
20260503220036 9 292 0.0 0.0 0.00 0.00 0.00 54 1014.7
20260503215536 9 292 0.0 0.0 0.00 0.00 0.00 54 1014.7
20260503215036 9 292 0.0 1.6 0.00 0.00 0.00 54 1014.8
20260503214535 9 292 0.0 1.6 0.00 0.00 0.00 53 1014.8
20260503214035 9 292 0.0 1.6 0.00 0.00 0.00 53 1015.0
20260503213535 9 292 0.0 3.2 0.00 0.00 0.00 53 1015.1
20260503213034 9 292 0.0 1.6 0.00 0.00 0.00 53 1015.0
20260503212534 9 292 0.0 6.4 0.00 0.00 0.00 52 1014.9
20260503212034 9 292 3.2 3.2 0.00 0.00 0.00 52 1014.9
20260503211534 9 292 0.0 0.0 0.00 0.00 0.00 52 1014.9
20260503211033 9 292 0.0 0.0 0.00 0.00 0.00 52 1014.9
20260503210533 10 292 0.0 3.2 0.00 0.00 0.00 52 1014.9
20260503210033 10 292 1.6 1.6 0.00 0.00 0.00 52 1014.9
20260503205533 10 292 1.6 3.2 0.00 0.00 0.00 51 1014.9
20260503205032 10 292 0.0 3.2 0.00 0.00 0.00 51 1014.9
20260503204532 10 292 1.6 3.2 0.00 0.00 0.00 51 1015.0
20260503204032 10 292 0.0 1.6 0.00 0.00 0.00 51 1015.0
20260503203531 10 292 0.0 1.6 0.00 0.00 0.00 50 1015.1
20260503203031 10 292 0.0 3.2 0.00 0.00 0.00 50 1015.1
20260503202531 10 292 0.0 4.8 0.00 0.00 0.00 50 1015.1
20260503202030 10 292 3.2 4.8 0.00 0.00 0.00 50 1015.0
20260503201530 10 292 3.2 3.2 0.00 0.00 0.00 50 1015.0
20260503201030 10 292 0.0 1.6 0.00 0.00 0.00 50 1015.1
20260503200530 10 292 0.0 0.0 0.00 0.00 0.00 49 1015.1
20260503200029 10 292 0.0 3.2 0.00 0.00 0.00 49 1015.1
20260503195529 10 292 1.6 3.2 0.00 0.00 0.00 49 1015.0
20260503195029 10 292 1.6 6.4 0.00 0.00 0.00 48 1015.1
20260503194528 10 292 3.2 6.4 0.00 0.00 0.00 48 1015.0
20260503194028 10 292 0.0 4.8 0.00 0.00 0.00 48 1015.1
20260503193528 10 292 3.2 3.2 0.00 0.00 0.00 48 1015.0
20260503193027 10 247 0.0 8.0 0.00 0.00 0.00 48 1014.9
20260503192527 10 292 0.0 3.2 0.00 0.00 0.00 48 1014.9
20260503192027 10 292 0.0 3.2 0.00 0.00 0.00 47 1014.9
20260503191527 11 225 1.6 3.2 0.00 0.00 0.00 47 1014.8
20260503191026 11 225 0.0 1.6 0.00 0.00 0.00 47 1014.8
20260503190526 11 225 0.0 1.6 0.00 0.00 0.00 47 1014.9
20260503190026 11 225 0.0 3.2 0.00 0.00 0.00 46 1014.7
20260503185525 11 225 0.0 3.2 0.00 0.00 0.00 45 1014.7
20260503185026 11 225 0.0 3.2 0.00 0.00 0.00 45 1014.7
20260503184525 11 225 0.0 6.4 0.00 0.00 0.00 45 1014.6
20260503184025 11 225 3.2 3.2 0.00 0.00 0.00 45 1014.6
20260503183524 12 202 0.0 9.7 0.00 0.00 0.00 45 1014.7
20260503183024 12 225 0.0 6.4 0.00 0.00 0.00 44 1014.7
20260503182524 12 225 4.8 11.3 0.00 0.00 0.00 44 1014.6
20260503182023 12 225 3.2 8.0 0.00 0.00 0.00 44 1014.5
20260503181523 12 247 4.8 4.8 0.00 0.00 0.00 45 1014.5
20260503181023 12 247 3.2 6.4 0.00 0.00 0.00 44 1014.5
20260503180523 12 225 3.2 4.8 0.00 0.00 0.00 44 1014.5
20260503180022 12 225 0.0 3.2 0.00 0.00 0.00 44 1014.5
20260503175522 12 225 3.2 6.4 0.00 0.00 0.00 44 1014.6
20260503175022 12 247 1.6 6.4 0.00 0.00 0.00 43 1014.5
20260503174521 13 247 1.6 8.0 0.00 0.00 0.00 43 1014.5
20260503174021 13 247 1.6 6.4 0.00 0.00 0.00 43 1014.4
20260503173521 13 247 3.2 9.7 0.00 0.00 0.00 42 1014.5
20260503173020 13 292 1.6 6.4 0.00 0.00 0.00 42 1014.5
20260503172520 13 292 3.2 9.7 0.00 0.00 0.00 42 1014.4
20260503172020 13 292 1.6 9.7 0.00 0.00 0.00 42 1014.4
20260503171520 14 247 0.0 8.0 0.00 0.00 0.00 42 1014.4
20260503171019 14 292 1.6 9.7 0.00 0.00 0.00 42 1014.4
20260503170519 14 292 1.6 6.4 0.00 0.00 0.00 43 1014.5
20260503151012 20 315 6.4 8.0 0.00 0.00 0.00 35 1014.9
20260503150512 20 292 3.2 6.4 0.00 0.00 0.00 36 1014.9
20260503131005 14 22 16.1 16.1 0.00 0.00 0.00 38 1016.3
20260503130505 14 112 0.0 11.3 0.00 0.00 0.00 37 1016.3
20260503110458 12 0 3.2 9.7 0.00 0.00 0.00 41 1017.6
20260503090451 13 315 0.0 3.2 0.00 0.00 0.00 48 1018.7
20260503081448 11 0 1.6 6.4 0.00 0.00 0.00 50 1018.9
20260503080948 12 45 1.6 6.4 0.00 0.00 0.00 50 1018.9
20260503080447 12 337 0.0 4.8 0.00 0.00 0.00 57 1019.0
20260503072445 11 0 0.0 3.2 0.00 0.00 0.00 62 1019.0
20260503071945 11 45 0.0 3.2 0.00 0.00 0.00 62 1018.9
20260503071444 11 292 0.0 3.2 0.00 0.00 0.00 67 1018.9
20260503070944 10 315 3.2 3.2 0.00 0.00 0.00 65 1018.9
20260503070444 10 22 0.0 3.2 0.00 0.00 0.00 64 1018.9
20260503054939 7 22 0.0 0.0 0.00 0.00 0.00 72 1019.0
20260503054439 7 0 0.0 1.6 0.00 0.00 0.00 74 1018.9
20260503053939 7 0 0.0 1.6 0.00 0.00 0.00 75 1019.0
20260503053439 6 0 0.0 0.0 0.00 0.00 0.00 77 1018.8
20260503052938 6 0 0.0 0.0 0.00 0.00 0.00 77 1018.9
20260503052438 5 0 0.0 0.0 0.00 0.00 0.00 78 1018.9
20260503051938 5 0 0.0 0.0 0.00 0.00 0.00 78 1018.9
20260503051437 5 0 0.0 1.6 0.00 0.00 0.00 79 1018.8
20260503050937 5 292 0.0 0.0 0.00 0.00 0.00 79 1018.8
20260503050437 5 292 0.0 0.0 0.00 0.00 0.00 80 1018.8
20260503045936 5 292 0.0 0.0 0.00 0.00 0.00 81 1018.8
20260503045436 5 292 0.0 0.0 0.00 0.00 0.00 81 1018.8
20260503044936 5 292 0.0 0.0 0.00 0.00 0.00 82 1018.8
20260503044436 5 292 0.0 0.0 0.00 0.00 0.00 82 1018.8
20260503043935 5 292 0.0 0.0 0.00 0.00 0.00 82 1018.7
20260503043435 5 292 0.0 0.0 0.00 0.00 0.00 83 1018.7
20260503042935 5 292 0.0 0.0 0.00 0.00 0.00 83 1018.7
20260503042434 4 292 0.0 0.0 0.00 0.00 0.00 84 1018.7
20260503041934 3 292 0.0 0.0 0.00 0.00 0.00 85 1018.6
20260503041434 3 292 0.0 0.0 0.00 0.00 0.00 85 1018.5
20260503040934 3 292 0.0 0.0 0.00 0.00 0.00 85 1018.5
20260503040433 3 292 0.0 0.0 0.00 0.00 0.00 86 1018.4
20260503035933 3 292 0.0 0.0 0.00 0.00 0.00 86 1018.4
20260503035433 2 292 0.0 0.0 0.00 0.00 0.00 87 1018.4
20260503034932 2 292 0.0 0.0 0.00 0.00 0.00 87 1018.4
20260503034432 1 292 0.0 0.0 0.00 0.00 0.00 87 1018.3
20260503033932 1 292 0.0 0.0 0.00 0.00 0.00 87 1018.3
20260503033432 0 292 0.0 0.0 0.00 0.00 0.00 87 1018.2
20260503032931 0 292 0.0 0.0 0.00 0.00 0.00 87 1018.2
20260503032431 0 292 0.0 0.0 0.00 0.00 0.00 87 1018.2
20260503031931 0 292 0.0 0.0 0.00 0.00 0.00 87 1018.2
20260503031430 0 292 0.0 0.0 0.00 0.00 0.00 87 1018.1
20260503030930 0 292 0.0 0.0 0.00 0.00 0.00 87 1018.1
20260503030430 0 292 0.0 0.0 0.00 0.00 0.00 87 1018.1
20260503025929 0 292 0.0 0.0 0.00 0.00 0.00 87 1018.0
20260503025429 0 292 0.0 0.0 0.00 0.00 0.00 87 1018.0
20260503024929 0 292 0.0 0.0 0.00 0.00 0.00 87 1018.0
20260503024429 0 292 0.0 0.0 0.00 0.00 0.00 87 1018.0
20260503023928 0 292 0.0 0.0 0.00 0.00 0.00 87 1018.0
20260503023428 0 292 0.0 0.0 0.00 0.00 0.00 87 1018.0
20260503022928 0 292 0.0 0.0 0.00 0.00 0.00 87 1017.9
20260503022427 0 292 0.0 0.0 0.00 0.00 0.00 87 1018.0